Orbital Elements at Epoch 2459000.5 (2020-May-31.0) TDB
Reference: JPL 18 (heliocentric ecliptic J2000)
Element | Value | Uncertainty (1-sigma) | Units |
e | .1682314124204364 | 8.095e-08 | |
a | 2.570093522056421 | 1.3794e-08 | au |
q | 2.137723058788255 | 2.0408e-07 | au |
i | 3.050915387671425 | 6.3405e-06 | deg |
node | 50.59092470563965 | 7.9647e-05 | deg |
peri | 325.6582265925729 | 8.1423e-05 | deg |
M | 75.42588135503158 | 1.5973e-05 | deg |
tp | 2458685.188572871295 (2019-Jul-20.68857287) | 6.6995e-05 | TDB |
period | 1504.949119945042 4.12 | 1.2116e-05 3.317e-08 | d yr |
n | .2392107448876056 | 1.9258e-09 | deg/d |
Q | 3.002463985324586 | 1.6115e-08 | au |
|
| | Orbit Determination Parameters
Additional Information
|